Tracking 35331 objects as of 15-Sep-2026
HD Live streaming from Space Station
objects crossing your sky now

TJS-20

Track TJS-20 now!


NORAD ID: 66142
Int'l Code: 2025-238A
Launch date: October 23, 2025
Source: People's Republic of China (PRC)
Launch site: Wenchang Satellite Launch Center (WSC)
Your satellite tracking list
Your tracking list is empty




NASA's NSSDC Master Catalog

Two Line Element Set (TLE):
1 66142U 25238A   26257.73003406  .00000015  00000-0  00000-0 0  9990
2 66142   5.2764 299.2416 0003150 232.7653 146.9161  1.00269443  3230
Source of the keplerian elements: AFSPC